AirNav   ProFlight Series 2 Aviation Headset
 
 1124 users online  

KEGT Wellington Municipal Airport
Wellington, Kansas, USA

GOING TO WELLINGTON?


FAA INFORMATION EFFECTIVE 18 JUNE 2020

Location

FAA Identifier: EGT
Lat/Long: 37-19-29.9846N 097-23-18.0815W
37-19.499743N 097-23.301358W
37.3249957,-97.3883560
(estimated)
Elevation: 1277 ft. / 389.2 m (surveyed)
Variation: 03E (2020)
From city: 3 miles N of WELLINGTON, KS
Time zone: UTC -5 (UTC -6 during Standard Time)
Zip code: 67152

Airport Operations

Airport use: Open to the public
Activation date: 11/1942
Control tower: no
ARTCC: KANSAS CITY CENTER
FSS: WICHITA FLIGHT SERVICE STATION
NOTAMs facility: ICT (NOTAM-D service available)
Attendance: 0800-1700
Wind indicator: lighted
Segmented circle: no
Lights: ACTVT REIL RWY 18 & 36; PAPI RWY 18 & 36; HIRL RWY 18/36 - CTAF.
Beacon: white-green (lighted land airport)
Operates sunset to sunrise.

Airport Communications

CTAF/UNICOM: 122.8
WX AWOS-3: 118.875 (620-326-2470)
WICHITA APPROACH: 134.85
WICHITA DEPARTURE: 134.85
WX ASOS at WLD (19 nm SE): 118.025 (620-221-9121)
WX ASOS at ICT (20 nm N): PHONE 316-945-8022

Nearby radio navigation aids

VOR radial/distance  VOR name  Freq  Var
ICTr153/26.9WICHITA VORTAC113.8007E
PERr337/36.4PIONEER VORTAC113.2006E
ANYr068/38.7ANTHONY VORTAC112.9007E

Airport Services

Fuel available: 100LL JET-A
AFT HRS CALL (620) 440-2213.
SELF SVC FUEL 100LL AVBL 24 HR WITH CREDIT CARD.
Parking: tiedowns
Airframe service: MAJOR
Powerplant service: MAJOR
Bottled oxygen: NONE
Bulk oxygen: NONE

Runway Information

Runway 18/36

Dimensions: 5201 x 100 ft. / 1585 x 30 m
Surface: concrete, in good condition
Weight bearing capacity: 
Single wheel: 49.0
Double wheel: 60.0
Runway edge lights: high intensity
RUNWAY 18  RUNWAY 36
Latitude: 37-19.928178N37-19.071307N
Longitude: 097-23.306732W097-23.295985W
Elevation: 1276.9 ft.1271.0 ft.
Traffic pattern: leftleft
Runway heading: 176 magnetic, 179 true356 magnetic, 359 true
Markings: nonprecision, in good conditionnonprecision, in good condition
Visual slope indicator: 4-light PAPI on left (3.00 degrees glide path)4-light PAPI on left (3.00 degrees glide path)
Runway end identifier lights: yesyes
Touchdown point: yes, no lightsyes, no lights

Airport Ownership and Management from official FAA records

Ownership: Publicly-owned
Owner: CITY OF WELLINGTON
441 NORTH WEST ROAD
WELLINGTON, KS 67152
Phone (620) 440-2213
Manager: MATTHEW D. WIEBE
441 NORTH WEST ROAD
WELLINGTON, KS 67152
Phone (620) 440-2213

Airport Operational Statistics

Aircraft based on the field: 23
Single engine airplanes: 21
Multi engine airplanes: 2
    
Aircraft operations: avg 50/day *
54% transient general aviation
44% local general aviation
1% commercial
<1% military
* for 12-month period ending 27 August 2018

Additional Remarks

FOR SPECIAL REQS & AFT HRS CALL 620-440-2213.
KEY CODE FOR PILOT LOUNGE 1228
FOR CD CTC WICHITA APCH AT 316-350-1520.

Instrument Procedures

NOTE: All procedures below are presented as PDF files. If you need a reader for these files, you should download the free Adobe Reader.

NOT FOR NAVIGATION. Please procure official charts for flight.
FAA instrument procedures published for use from 18 June 2020 at 0901Z to 16 July 2020 at 0900Z.

 
IAPs - Instrument Approach Procedures
RNAV (GPS) RWY 18 **CHANGED**   download (267KB)
RNAV (GPS) RWY 36 **CHANGED**   download (266KB)
VOR RWY 18 **CHANGED**   download (226KB)
NOTE: Special Take-Off Minimums/Departure Procedures apply   download (259KB)

Other nearby airports with instrument procedures:

KIAB - Mc Connell Air Force Base (19 nm N)
KWLD - Strother Field Airport (19 nm SE)
KICT - Wichita Dwight D Eisenhower National Airport (20 nm N)
KCEA - Cessna Aircraft Field Airport (20 nm N)
KBEC - Beech Factory Airport (24 nm N)
 
Loc | Ops | Rwys | IFR | FBO | Links
Com | Nav | Svcs | Stats | Notes
Area around KEGT (Wellington Municipal Airport)
 
Road maps at: MapQuest Bing Google
 
Aerial photo
WARNING: Photo may not be current or correct
Aerial photo of KEGT (Wellington Municipal Airport)
Photo taken 04-Sep-2015
looking east.

Do you have a better or more recent aerial photo of Wellington Municipal Airport that you would like to share? If so, please send us your photo.

 
Sectional chart

 
Airport distance calculator
Flying to Wellington Municipal Airport? Find the distance to fly.

From to KEGT

Sunrise and sunset
Times for 08-Jul-2020
 Local
(UTC-5)
 Zulu
(UTC)
Morning civil twilight05:4710:47
Sunrise06:1811:18
Sunset20:5201:52
Evening civil twilight21:2202:22

Current date and time
Zulu (UTC)  08-Jul-2020 22:16:07
Local (UTC-5)  08-Jul-2020 17:16:07
 
METAR
KIAB 
18nm N 
082156Z AUTO 19015G23KT 10SM FEW070 35/17 A2982 RMK AO2 SLP084 T03520174 $
KWLD 
19nm SE 
082154Z AUTO 17014G23KT 10SM CLR 36/19 A2983 RMK AO2 SLP086 T03560194
KICT 
20nm N 
082153Z 14013G22KT 10SM FEW080 34/19 A2980 RMK AO2 SLP075 T03440194
KBEC 
24nm N 
082155Z AUTO 15011G19KT 10SM SCT060 SCT070 34/19 A2982 RMK AO2 T03390192
K3AU 
26nm NE 
082155Z AUTO 15009G16KT 10SM SCT060 34/19 A2983 RMK AO2
KAAO 
27nm N 
082154Z AUTO 16015G20KT 10SM FEW065 FEW080 36/20 A2981 RMK AO2 SLP078 T03560200
K1K1 
30nm NE 
082155Z AUTO 14012G18KT 120V180 10SM SCT060 SCT070 34/19 A2983 RMK AO2 T03420191
KBKN 
35nm S 
082155Z AUTO 15015KT 10SM FEW060 SCT070 SCT075 36/20 A2980 RMK AO2
TAF
KIAB 
18nm N 
081826Z 0818/0924 18012G18KT 9999 BKN035 QNH2977INS BECMG 0901/0902 16009KT 9999 FEW030 SCT050 QNH2975INS BECMG 0909/0910 05015G25KT 6000 -SHRA VCTS BKN015CB QNH2977INS TEMPO 0911/0916 VRB35G45KT 1600 TSRA OVC007CB BECMG 0923/0924 10012G18KT 8000 -SHRA VCTS BKN030CB QNH2984INS TX35/0821Z TN26/0911Z
KICT 
20nm N 
081741Z 0818/0918 17015G25KT P6SM SCT040 FM090100 16015KT P6SM FEW040 FM090800 07010KT P6SM BKN050 FM091400 11010KT P6SM SCT050
NOTAMs
Click for the latest NOTAMs
NOTAMs are issued by the DoD/FAA and will open in a separate window not controlled by AirNav.

 

 
 

FBO, Fuel Providers, and Aircraft Ground Support

  
 Business Name 
 
 Contact 
 
 Services / Description 
 
Fuel Prices
 
Comments
  
 Wellington Municipal Airport
620-440-2213
[web site]
[email]
Airport management, Aviation fuel, Aircraft parking (ramp or tiedown), Hangars, Passenger terminal and lounge, Flight training, Aircraft modifications, Pilot supplies, ...
 
Courtesy car   Enterprise Rent-A-Car  
 
More info about Wellington Municipal Airport
Avfuel
100LL Jet A
AS $4.00 --- 
FS --- $2.15 
 Updated 08-Jul-2020
 
   write
AS=Assisted/Self Service
FS=Full service
Update Fuel Prices
 

Aviation Businesses, Services, and Facilities

  
 Business Name 
 
 Contact 
 
 Services / Description 
 
Distance
 
Comments
  
Air Plains Services 620-326-8904
toll-free 1-800-752-8481
[web site]
[email]
Aircraft maintenance, Avionics sales and service, Aircraft modifications, Aircraft painting, Aircraft interiors, Aircraft cleaning / washing / detailing, Aircraft parts

More info about Air Plains Services
on airport  
   write
 

Would you like to see your business listed on this page?

 If your business provides an interesting product or service to pilots, flight crews, aircraft, or users of the Wellington Municipal Airport, you should consider listing it here.  To start the listing process, click on the button below
 
Add a business
 

Other Pages about Wellington Municipal Airport

cityofwellington.net/municipal-airport
 
Update a link
 
Copyright © AirNav, LLC. All rights reserved. Privacy Policy  Contact